sat.trackr.live / text

‹ back to catalog

STARLINK-35022

NORAD 65409 · 2025-192F

PAYLOAD ACTIVE UNKNOWN

§ Identity

Operator
Country
US
Launch date
2025-08-31
Launch site
AFETR
Launch vehicle
Mass (kg)
RCS (m²)

Purposes: comms

External: N2YO · Heavens-Above · Gunter

§ Orbital elements

Epoch: 2026-09-20T21:17:17.875680Z

Period
94.01 min
Inclination
53.1595°
Eccentricity
0.0001030
Mean motion
15.31716853 rev/d
Perigee alt
470.0 km
Apogee alt
471.4 km
Semi-major
6,848.8 km
B*
5.2549e-4
RAAN
43.9897°
Arg perigee
76.2954°
Mean anomaly
283.8162°
Rev number
5,929

§ Raw data

STARLINK-350221 65409U 25192F   26263.88701245  .00015985  00000+0  52549-3 0  99922 65409  53.1595  43.9897 0001030  76.2954 283.8162 15.31716853 59296

JSON: /api/v1/satellites/65409 · /tle

For live sub-satellite position, see the globe view (requires WebGL).

§ Visibility from observer

Set your observer location to see the next 7 days of passes ≥ 10°. The values pass through the URL so the page stays shareable.

No JS? Fill the form by hand. The geolocation button needs JavaScript.